Regional Weather Roundup
Issued by NWS

Home | Current Version | Previous Version | Graphics & Text | Print | Product List | Glossary On
Versions: 1 2 3 4 5 6 7 8 9 10 11 12 13 14 15 16 17 18 19 20 21 22 23 24 25 26 27 28 29 30 31 32 33 34 35 36 37 38 39 40 41 42 43 44 45 46 47 48 49 50
000
ASUS43 KBIS 210202
RWRND

NORTH DAKOTA REGIONAL WEATHER ROUNDUP
NATIONAL WEATHER SERVICE BISMARCK ND
900 PM CDT SUN AUG 20 2017

NOTE: "FAIR" INDICATES FEW OR NO CLOUDS BELOW 12,000 FEET WITH NO
SIGNIFICANT WEATHER AND/OR OBSTRUCTIONS TO VISIBILITY.


NDZ001>003-009>011-017-210300-
NORTHWEST NORTH DAKOTA

CITY           SKY/WX    TMP DP  RH WIND       PRES   REMARKS
WILLISTON      MOCLDY    72  44  36 S7        29.96S
MINOT          PTCLDY    70  43  37 S8        29.98S
MINOT AFB        N/A     64  45  49 S8        29.97R
$$

NDZ018>021-031>035-040>046-210300-
SOUTHWEST NORTH DAKOTA

CITY           SKY/WX    TMP DP  RH WIND       PRES   REMARKS
BISMARCK       MOCLDY    63  57  81 SE5       30.03S
DICKINSON      CLEAR     61  47  59 SE12      30.00S
GARRISON         N/A     63  50  62 S7        30.01R
HETTINGER ARPT CLEAR     63  45  51 E13       30.02F
$$

NDZ004>008-012>016-024-026-027-054-210300-
NORTHEAST NORTH DAKOTA

CITY           SKY/WX    TMP DP  RH WIND       PRES   REMARKS
GRAND FORKS    PTCLDY    61  54  77 W5        29.99R HAZE
GRND FRKS AFB  CLEAR     60  52  73 CALM      30.00R
DEVILS LAKE    CLEAR     65  49  56 S5        30.02
$$

NDZ022-023-025-028>030-036>039-047>053-210300-
SOUTHEAST NORTH DAKOTA

CITY           SKY/WX    TMP DP  RH WIND       PRES   REMARKS
FARGO          CLOUDY    65  53  65 SW6       30.01R
JAMESTOWN      MOCLDY    63  58  83 CALM      30.03R
$$





USA.gov is the U.S. government's official web portal to all federal, state and local government web resources and services.